Location: Cambridge (historical)
(38.6883°N, 119.0140°W)
Time: 16:18:56
(UTC+00:00)

Cosmos 1726 Rocket - Pass Details

Date: 29 October 2020
Orbit: 604 x 628 km, 82.5° (Epoch: 22 November)

Event Time Altitude Azimuth Distance (km) Brightness Sun altitude
Rises 12:57:03 0° 347° (NNW) 2,921 6.8 -16.8°
Reaches altitude 10° 12:59:19 10° 343° (NNW) 2,011 6.0 -16.3°
Maximum altitude 13:03:40 54° 267° (W) 768 3.6 -15.5°
Drops below altitude 10° 13:07:59 10° 190° (S) 1,998 6.1 -14.7°
Sets 13:10:14 0° 186° (S) 2,899 7.0 -14.2°
